Location: Unspecified
(34.4950°S, 58.5160°W)
Time: 14:20:46
(UTC+00:00)

Cosmos 1655 Rocket - Pass Details

Date: 01 July 2022
Orbit: 971 x 1005 km, 83.0° (Epoch: 11 August)

Event Time Altitude Azimuth Distance (km) Brightness Sun altitude
Rises 00:27:44 0° 325° (NW) 3,712 7.4 -43.1°
Reaches altitude 10° 00:30:38 10° 313° (NW) 2,775 6.7 -43.7°
Enters shadow 00:33:34 22° 290° (WNW) 2,032 6.0 -44.3°
